Home   Weather   Wiehl   Past weeks

Flag for Germany Past Weather in Wiehl, North Rhine-Westphalia, Germany — Yesterday and Last 2 Weeks

48 °F

Broken clouds.

Feels Like: 46 °F
Forecast: 33 / 52 °F
Wind: 6 mph from Northwest

Location: Koeln / Bonn

Current Time: Oct 22, 2016 at 1:49:20 PM

Latest Report: Oct 22, 2016 at 1:20 PM

Visibility: N/A

Pressure: 29.95 "Hg

Humidity: 87%

Dew Point: 45 °F

Location of WiehlLocation

Past Weather in Wiehl — Graph


Wiehl Temperature Yesterday

Maximum temperature yesterday: 46 °F (at 10:50 AM)
Minimum temperature yesterday: 43 °F (at 12:20 AM)
Average temperature yesterday: 45 °F

High & Low Weather Summary for the Past Weeks

High68 °F (Oct 16, 3:50 PM)100% (Oct 7, 10:20 PM)30.27 "Hg (Oct 7, 10:20 PM)
Low30 °F (Oct 11, 7:50 AM)49% (Oct 16, 3:20 PM)29.68 "Hg (Oct 14, 6:20 PM)
Average49 °F84%30.05 "Hg
* Reported Oct 7 12:20 PM — Oct 22 12:20 PM, Wiehl, Weather by CustomWeather, © 2016

Note: Actual official high and low records may vary slightly from our data, if they occured in-between our weather recording intervals... More about our weather records


Wiehl Weather History for the Previous 24 Hours

Scroll right to see more
Time TempWeatherWind HumidityBarometerVisibility
12:20 PM
Sat, Oct 22
48 °FBroken clouds.5 mph94%29.92 "HgN/A
11:50 AM48 °FBroken clouds.5 mph94%29.92 "HgN/A
11:20 AM48 °FBroken clouds.6 mph94%29.92 "HgN/A
10:50 AM48 °FDrizzle. Broken clouds.6 mph94%29.92 "Hg6 mi
10:20 AM46 °FDrizzle. Broken clouds.5 mph100%29.92 "Hg5 mi
9:50 AM46 °FDrizzle. Fog.7 mph100%29.92 "Hg2 mi
9:20 AM46 °FDrizzle. Fog.7 mph100%29.92 "Hg2 mi
8:50 AM46 °FDrizzle. Fog.8 mph100%29.92 "Hg2 mi
8:20 AM46 °FDrizzle. Fog.8 mph100%29.89 "Hg2 mi
7:50 AM46 °FDrizzle. Fog.8 mph100%29.89 "Hg3 mi
7:20 AM46 °FDrizzle. Fog.8 mph100%29.89 "Hg3 mi
6:50 AM46 °FDrizzle. Low clouds.8 mph100%29.89 "Hg3 mi
6:20 AM46 °FDrizzle. Low clouds.9 mph93%29.89 "Hg4 mi
5:50 AM46 °FPassing clouds.7 mph93%29.89 "Hg4 mi
5:20 AM46 °FPassing clouds.7 mph93%29.89 "Hg4 mi
4:50 AM46 °FPassing clouds.9 mph93%29.89 "Hg4 mi
4:20 AM46 °FPassing clouds.8 mph93%29.89 "Hg4 mi
3:50 AM46 °FPassing clouds.8 mph93%29.89 "Hg4 mi
3:20 AM46 °FPassing clouds.7 mph93%29.92 "Hg4 mi
2:20 AM46 °FPassing clouds.7 mph93%29.92 "Hg4 mi
1:50 AM46 °FPassing clouds.6 mph93%29.92 "Hg4 mi
1:20 AM46 °FPassing clouds.5 mph93%29.92 "Hg4 mi
12:50 AM45 °FPassing clouds.5 mph100%29.92 "Hg4 mi
12:20 AM45 °FPartly cloudy.5 mph100%29.92 "Hg4 mi
11:50 PM
Fri, Oct 21
45 °FPassing clouds.5 mph100%29.95 "Hg3 mi
11:20 PM45 °FPassing clouds.5 mph93%29.95 "Hg4 mi
10:50 PM45 °FLight rain. Passing clouds.6 mph93%29.95 "Hg3 mi
10:20 PM45 °FRain. Passing clouds.7 mph93%29.95 "Hg3 mi
9:50 PM45 °FRain. Partly cloudy.7 mph93%29.95 "Hg3 mi
9:20 PM45 °FRain. Passing clouds.6 mph93%29.98 "Hg3 mi
8:50 PM45 °FRain. Passing clouds.3 mph93%29.98 "Hg4 mi
8:20 PM45 °FLight rain. Overcast.3 mph87%29.98 "Hg5 mi
7:50 PM45 °FLight rain. Overcast.6 mph87%29.98 "Hg6 mi
7:20 PM45 °FPartly cloudy.5 mph87%29.98 "HgN/A
6:50 PM45 °FPartly cloudy.7 mph87%29.98 "HgN/A
6:20 PM45 °FPartly sunny.6 mph87%29.98 "HgN/A
5:50 PM46 °FPartly sunny.7 mph76%29.98 "HgN/A
5:20 PM46 °FPartly sunny.7 mph76%29.98 "HgN/A
4:50 PM46 °FPartly sunny.9 mph76%29.98 "HgN/A
4:20 PM46 °FPartly sunny.9 mph76%29.98 "HgN/A
3:50 PM46 °FPartly sunny.8 mph76%29.98 "HgN/A
3:20 PM46 °FBroken clouds.10 mph82%30.01 "HgN/A
2:50 PM46 °FBroken clouds.9 mph82%30.01 "HgN/A
2:20 PM46 °FBroken clouds.8 mph82%30.01 "HgN/A
1:50 PM46 °FBroken clouds.9 mph82%30.01 "HgN/A
1:20 PM46 °FBroken clouds.7 mph87%30.01 "HgN/A
Weather by CustomWeather, © 2016

See weather overviewHow to use our weather pages